Tracking 26894 objects as of 1-Feb-2023
HD Live streaming from Space Station
objects crossing your sky now

VOLGA R/B

Track VOLGA R/B now!
10-day predictions


NORAD ID: 44425
Int'l Code: 2019-039E
Perigee: 469.0 km
Apogee: 498.5 km
Inclination: 97.5 °
Period: 94.1 minutes
Semi major axis: 6854 km
RCS: Unknown
Launch date: July 10, 2019
Source: Commonwealth of Independent States (former USSR) (CIS)
Launch site: PLESETSK MISSILE AND SPACE COMPLEX (PKMTR)

Note: This is a ROCKET BODY
Your satellite tracking list
Your tracking list is empty




NASA's NSSDC Master Catalog

Two Line Element Set (TLE):
1 44425U 19039E   23032.23744341  .00007906  00000-0  27525-3 0  9995
2 44425  97.4721 118.0482 0021524 178.2971 181.8346 15.29735754198146
Source of the keplerian elements: AFSPC